WZZ9QM ENBR-EPGD

Flight info

Callsign WZZ9QM
Flight time N/A
Altitude 35000
Route TINIG DCT ULMUG DCT REPKU DCT PENOR DCT MOTAD N133 DOMAG T240 OGDAV
Aircraft A321/M-SDE3FGHIRWY/LB1

Departure

Time 2026-05-04 12:28
Airport Bergen Airport, Flesland (ENBR)

Arrival

Time N/A
Airport Gdańsk Lech Wałęsa Airport (EPGD)
Time Latitude Longitude Altitude Speed Heading
2026-05-04 12:16 60.28896 5.22530 174 ft 0 kts 83°
2026-05-04 12:20 60.28894 5.22494 174 ft 4 kts 90°
2026-05-04 12:21 60.28897 5.22441 174 ft 4 kts 113°
2026-05-04 12:21 60.28911 5.22405 174 ft 4 kts 163°
2026-05-04 12:21 60.28916 5.22401 174 ft 0 kts 169°
2026-05-04 12:25 60.28916 5.22402 174 ft 0 kts 169°
2026-05-04 12:25 60.28903 5.22406 174 ft 5 kts 169°
2026-05-04 12:25 60.28864 5.22421 174 ft 5 kts 169°
2026-05-04 12:25 60.28836 5.22427 174 ft 5 kts 182°
2026-05-04 12:26 60.28779 5.22346 174 ft 13 kts 198°
2026-05-04 12:26 60.28696 5.22358 174 ft 11 kts 171°
2026-05-04 12:26 60.28620 5.22381 174 ft 15 kts 172°
2026-05-04 12:26 60.28466 5.22428 175 ft 26 kts 171°
2026-05-04 12:27 60.28322 5.22464 181 ft 13 kts 180°
2026-05-04 12:27 60.28284 5.22387 181 ft 7 kts 251°
2026-05-04 12:27 60.28283 5.22263 183 ft 10 kts 281°
2026-05-04 12:27 60.28320 5.22167 184 ft 8 kts 329°
2026-05-04 12:28 60.28385 5.22135 180 ft 14 kts 350°
2026-05-04 12:28 60.28721 5.22023 175 ft 86 kts 350°
2026-05-04 12:28 60.29528 5.21760 173 ft 147 kts 351°
2026-05-04 12:28 60.30593 5.21408 812 ft 150 kts 349°
2026-05-04 12:29 60.31608 5.21062 1710 ft 148 kts 348°
2026-05-04 12:29 60.32631 5.20695 2311 ft 153 kts 348°
2026-05-04 12:29 60.33750 5.20295 2584 ft 174 kts 348°
2026-05-04 12:29 60.35016 5.19859 2792 ft 195 kts 349°
2026-05-04 12:30 60.36435 5.19381 2928 ft 219 kts 348°
2026-05-04 12:30 60.38033 5.18838 3178 ft 245 kts 349°
2026-05-04 12:30 60.39762 5.18274 3783 ft 255 kts 351°
2026-05-04 12:30 60.41527 5.18536 4544 ft 266 kts 15°
2026-05-04 12:31 60.43129 5.20472 5303 ft 275 kts 44°
2026-05-04 12:31 60.44103 5.23837 6007 ft 284 kts 76°
2026-05-04 12:31 60.44147 5.27826 6649 ft 287 kts 108°
2026-05-04 12:31 60.43333 5.31511 7288 ft 290 kts 121°
2026-05-04 12:32 60.42356 5.35114 7934 ft 292 kts 122°
2026-05-04 12:32 60.40329 5.42379 9217 ft 304 kts 125°